Time,B instrument,Bx,By,Bz,sigma B,Ion instrument,Status,Tp_par,Tp_perp,carrot,r_sun,clat,clong,earth_he_angle,n_p,vp_x,vp_y,vp_z,vth_p_par,vth_p_perp
1980-07-03 00:00:45,1,11.1667,-5.6,5.55,0.575664,1,1,27002.2,47129.8,1696,0.68332541,5.6420774,139.90245,103.25011,6.42733,357.617,10.4263,-44.2591,21.1134,27.8937
1980-07-03 00:02:06,1,10.7667,-5.33333,5.06667,0.258199,1,1,26307.9,39330.7,1696,0.68333995,5.6419182,139.88751,103.25079,6.96668,361.981,7.84242,-51.8418,20.8402,25.4814
1980-07-03 00:03:27,-1,nan,nan,nan,nan,1,4,nan,nan,1696,0.68334728,5.641839,139.87613,103.25113,nan,nan,nan,nan,nan,nan
1980-07-03 00:04:48,1,8.26667,-6.18333,-7.23333,0.398957,1,1,33034.9,35502.9,1696,0.68335456,5.6417599,139.86476,103.25148,6.55697,372.156,14.6494,25.7023,23.3531,24.2097
1980-07-03 00:06:09,1,7.05714,-5.2,-9.11429,0.425225,1,1,36360.6,37317.7,1696,0.68336916,5.6416006,139.85373,103.25217,7.24575,379.24,8.13975,34.9774,24.5004,24.8208
1980-07-03 00:07:30,1,4.41429,-2.08571,-11.8429,0.546977,1,1,31827.6,40757.2,1696,0.68337643,5.6415215,139.84235,103.2525,5.92547,383.473,6.27475,34.3221,22.9224,25.9394
1980-07-03 00:08:51,1,5.71429,-4.01429,-11.0571,0.569998,1,1,19728.4,27118.1,1696,0.6833837,5.6414423,139.82707,103.25285,6.26975,377.386,7.46072,30.8291,18.047,21.1586
1980-07-03 00:10:12,1,5.55,-4.0,-11.1667,0.52731,1,1,22927.3,32315.4,1696,0.68339831,5.641284,139.81604,103.25354,5.72628,380.721,-0.0507861,38.1946,19.4551,23.0974
1980-07-03 00:11:33,1,6.75,-5.31667,-9.55,0.439381,1,1,27615.1,27901.7,1696,0.68340558,5.6412039,139.80466,103.25388,6.51587,372.061,9.70344,32.6313,21.3516,21.4621
1980-07-03 00:12:54,1,7.8,-7.18333,-7.55,0.392287,1,1,22469.9,29890.7,1696,0.68341291,5.6411247,139.79329,103.25423,7.16213,371.49,20.8695,27.1529,19.2601,22.214
1980-07-03 00:14:15,1,7.07143,-7.6,-6.65714,0.30034,1,1,31196.7,39422.1,1696,0.68342745,5.6409664,139.78226,103.25491,6.14161,375.996,24.6957,26.0987,22.6941,25.511
1980-07-03 00:15:36,1,6.18571,-7.04286,-8.04286,0.404061,1,1,35906.3,39012.6,1696,0.68343478,5.6408873,139.77087,103.25525,6.04111,380.179,19.7711,29.7729,24.3469,25.3782
1980-07-03 00:16:57,1,5.95714,-7.0,-8.38571,0.527218,1,1,35192.4,40613.5,1696,0.68344206,5.6408072,139.7556,103.2556,6.01067,377.141,11.7959,33.2533,24.1036,25.8936
1980-07-03 00:18:18,1,7.0,-5.14286,-8.85714,0.384389,1,1,37789.5,50158.6,1696,0.68345666,5.6406488,139.74457,103.25629,6.11431,378.328,7.66647,37.6601,24.9772,28.776
1980-07-03 00:19:39,1,6.82857,-6.38571,-7.44286,0.520988,1,1,31347.8,35533.1,1696,0.68346393,5.6405697,139.73318,103.25662,6.00946,375.819,17.5723,26.4412,22.7489,24.22
1980-07-03 00:21:00,1,9.25714,-8.07143,-0.157143,1.2194,1,1,31008.5,30063.8,1696,0.68347847,5.6404104,139.72215,103.25731,6.02575,370.474,28.6801,-11.3932,22.6255,22.2782
1980-07-03 00:22:21,1,9.25714,-7.95714,-1.1,0.99242,1,1,28473.3,37223.4,1696,0.68348581,5.6403313,139.71078,103.25766,5.87403,370.929,30.5389,-18.9157,21.6809,24.7894
1980-07-03 00:23:42,1,9.84286,-6.7,-1.12857,1.93876,1,1,26172.5,37661.9,1696,0.68349308,5.6402521,139.6994,103.258,6.07984,357.89,13.0868,-4.02648,20.7865,24.935
1980-07-03 00:25:03,1,9.75,-7.2,2.18333,0.57494,1,1,29681.2,36787.3,1696,0.68350768,5.6400938,139.68446,103.25868,6.51472,364.416,29.6714,-30.9037,22.136,24.6437
1980-07-03 01:37:57,1,9.51667,-3.51667,-5.83333,1.72095,1,1,16246.4,65306.2,1697,0.68406874,5.621882,138.9747,103.21689,6.15086,357.094,-7.18819,19.3382,16.3771,32.8348
1980-07-03 01:38:31,-1,nan,nan,nan,nan,1,4,nan,nan,1696,0.68403971,5.6343031,139.03372,103.28372,nan,nan,nan,nan,nan,nan
1980-07-03 01:39:52,1,7.28571,-2.75714,-8.54286,1.04764,1,1,20651.3,19858.1,1696,0.68404704,5.6342239,139.02234,103.28406,3.96349,359.867,-10.3599,14.893,18.4642,18.1062
1980-07-03 01:39:53,1,7.23333,-2.78333,-8.65,1.08449,1,1,31496.1,68576.1,1696,0.68404704,5.6342239,139.02234,103.28406,6.00588,375.18,7.38799,30.0421,22.8027,33.6468
1980-07-03 01:40:39,1,10.9429,-3.88571,-3.35714,2.01788,1,1,20767.2,43111.0,1696,0.68405432,5.6341448,139.01488,103.28441,5.07429,347.126,4.24521,-11.4027,18.516,26.6779
1980-07-03 01:42:00,1,8.4,-0.95,-8.0,0.867468,1,1,24108.3,48020.1,1696,0.68406886,5.6339865,139.00385,103.2851,4.55376,360.486,-18.1083,29.31,19.9499,28.1559
1980-07-03 01:43:19,1,7.18333,-2.18333,-9.51667,0.933185,1,1,29005.0,47428.1,1696,0.68407619,5.6339073,138.99246,103.28543,5.7897,369.753,-2.4052,33.0212,21.8824,27.9818
1980-07-03 01:44:40,1,8.56667,-3.28333,-8.03333,0.882704,1,1,24034.8,59750.5,1696,0.68408346,5.6338282,138.98109,103.28578,6.74615,354.945,17.281,23.6413,19.9195,31.4072
1980-07-03 01:50:06,1,8.25,-3.86667,-8.6,0.409946,1,1,30254.2,52453.3,1696,0.68412715,5.6333523,138.93236,103.28783,6.24617,364.45,1.18675,33.7607,22.3486,29.4269
1980-07-03 01:51:27,1,9.05714,-4.37143,-7.37143,1.80181,1,1,30798.8,42282.0,1696,0.68413442,5.6332731,138.92099,103.28818,5.30601,358.764,11.4343,17.6403,22.5489,26.4202
1980-07-03 01:52:48,1,7.72857,-2.97143,-8.81429,2.07974,1,1,33411.9,43783.0,1696,0.68414176,5.633194,138.90961,103.28851,5.51608,360.539,3.42808,28.0145,23.486,26.885
1980-07-03 01:54:09,1,9.07143,-2.77143,-8.25714,0.583795,1,1,28016.4,60051.7,1696,0.6841563,5.6330347,138.89857,103.2892,5.76576,361.785,0.0753977,26.417,21.5062,31.4862
1980-07-03 01:55:30,1,9.12857,-3.4,-8.08571,0.330121,1,1,28268.4,46088.8,1696,0.68416357,5.6329556,138.88329,103.28954,5.22538,359.032,2.62247,21.8158,21.6027,27.5839
1980-07-03 01:56:51,1,9.58571,-4.6,-6.72857,0.469476,1,1,28656.2,48907.6,1696,0.6841709,5.6328764,138.87192,103.28989,5.94776,353.58,11.425,10.461,21.7504,28.4149
1980-07-03 01:58:12,1,10.0571,-3.18571,-6.8,0.431892,1,1,32174.2,40479.5,1696,0.68418545,5.6327181,138.86089,103.29057,5.72832,354.87,1.60267,18.8198,23.0469,25.8509
1980-07-03 01:59:33,1,9.88333,-3.08333,-6.75,0.385501,1,1,26619.7,51275.3,1696,0.68419272,5.6326389,138.8495,103.29091,5.33144,349.243,-0.449721,19.4283,20.9633,29.0946
1980-07-03 02:00:54,1,9.51667,-2.41667,-7.86667,0.558271,1,1,29062.6,39689.5,1696,0.68420005,5.6325588,138.83813,103.29126,5.38191,358.021,-6.54818,26.3021,21.9041,25.5974
1980-07-03 02:02:15,1,9.37143,-1.61429,-7.88571,0.314286,1,1,26242.4,48475.0,1696,0.68421459,5.6324005,138.82709,103.29193,5.57991,356.057,-9.02642,28.9293,20.8142,28.289
1980-07-03 02:04:57,1,9.12,-1.86,-8.1,0.704273,1,1,33483.4,44828.4,1696,0.68422914,5.6322422,138.80043,103.29262,5.32315,358.086,-4.34374,28.5549,23.5111,27.2041
1980-07-03 02:06:18,1,9.74286,-3.78571,-6.51429,0.336852,1,1,30036.0,46008.6,1696,0.68424368,5.6320829,138.7894,103.2933,4.87861,356.262,6.16894,18.3751,22.2679,27.5599
1980-07-03 02:07:39,1,7.94286,-5.02857,-7.47143,0.556226,1,1,30393.5,57152.3,1696,0.68425101,5.6320038,138.77802,103.29364,5.60864,368.771,14.0622,29.0468,22.4,30.7167
1980-07-03 02:09:00,1,8.01429,-5.15714,-7.4,0.693409,1,1,29023.3,59349.2,1696,0.68426555,5.6318455,138.76697,103.29431,5.20038,362.775,9.39262,24.6545,21.8893,31.3015
1980-07-03 02:11:42,1,10.9667,-4.56667,-4.21667,0.35,1,1,39304.5,52455.8,1696,0.6842801,5.6316862,138.74031,103.295,5.83653,356.099,11.9632,6.74098,25.4729,29.4276
1980-07-03 02:13:03,1,9.6,-5.56667,-5.9,0.303681,1,1,34562.5,49307.5,1696,0.68429464,5.6315279,138.72928,103.29568,6.18514,363.729,15.1113,15.9412,23.8869,28.5308
1980-07-03 02:14:24,1,10.4714,-4.82857,-5.14286,0.308386,1,1,34712.9,48166.2,1696,0.68430197,5.6314487,138.7179,103.29602,5.99833,358.071,9.50134,12.7049,23.9389,28.1987
1980-07-03 02:15:45,1,9.8,-4.73333,-6.03333,0.530199,1,1,30390.3,43784.1,1696,0.68430924,5.6313696,138.70653,103.29637,5.89521,355.902,6.25449,12.9077,22.3988,26.8854
1980-07-03 02:17:06,1,8.68571,-1.81429,-8.64286,0.413052,1,1,35174.7,35612.6,1696,0.68432379,5.6312103,138.69548,103.29704,5.79017,363.704,-9.46682,30.7988,24.0976,24.2471
1980-07-03 02:18:27,1,9.0,-0.0714286,-8.92857,0.335638,1,1,36653.0,46483.1,1696,0.68433106,5.6311312,138.68021,103.29739,6.29989,363.969,-20.1966,31.9886,24.5987,27.7016
1980-07-03 02:19:48,1,7.28333,-5.71667,-8.25,1.29433,1,1,40125.9,43282.6,1696,0.68433833,5.631052,138.66882,103.29773,6.07465,376.293,17.6923,28.5861,25.7377,26.731
1980-07-03 02:21:09,1,7.38333,0.783333,-10.2667,0.769199,1,1,36822.9,51081.8,1696,0.68435293,5.6308928,138.65779,103.29842,6.11301,371.001,-25.5181,43.131,24.6557,29.0396
1980-07-03 02:22:30,1,7.86667,-0.283333,-9.5,0.725909,1,1,38487.5,43798.9,1696,0.68436021,5.6308136,138.64641,103.29875,5.49645,367.059,-25.0933,39.5051,25.2068,26.8899
1980-07-03 02:23:51,1,8.11429,-3.71429,-8.44286,0.854759,1,1,38016.1,43230.4,1696,0.68436748,5.6307344,138.63503,103.29909,6.08943,359.894,-18.1447,29.6481,25.052,26.7148
1980-07-03 02:25:12,1,8.44286,-2.67143,-8.82857,0.347586,1,1,33923.2,47663.4,1696,0.68438202,5.6305761,138.62399,103.29977,5.81475,363.306,-6.33849,33.1764,23.665,28.0511
1980-07-03 02:26:33,1,9.06667,-2.75,-8.1,0.5047,1,1,31258.7,44458.4,1696,0.68438929,5.630496,138.6087,103.30011,5.6159,355.657,4.5693,21.5991,22.7166,27.0916
1980-07-03 02:27:54,1,9.82857,-0.671429,-7.74286,0.59109,1,1,38389.9,36752.3,1696,0.68439662,5.6304169,138.59734,103.30046,5.69243,357.153,-11.9858,27.2888,25.1748,24.632
1980-07-03 02:29:15,1,8.77143,-0.671429,-8.9,0.795395,1,1,36442.0,42875.5,1696,0.68441117,5.6302586,138.58629,103.30113,6.03259,360.151,-14.6271,30.9931,24.5278,26.605
1980-07-03 02:30:36,1,7.82857,-0.771429,-9.84286,0.330738,1,1,38978.5,42939.5,1696,0.68441844,5.6301794,138.57492,103.30148,6.14191,366.365,-17.5149,37.2112,25.3671,26.6248
1980-07-03 02:31:57,1,7.13333,0.383333,-10.1,0.283333,1,1,54861.1,38389.3,1696,0.68442571,5.6300993,138.56354,103.30182,6.1667,370.843,-27.0074,39.1042,30.0947,25.1746
1980-07-03 02:33:18,1,8.66667,-4.35,-7.48333,0.468449,1,1,34887.6,33191.6,1696,0.68444026,5.629941,138.55251,103.30251,4.9186,360.321,-7.08596,25.032,23.999,23.4084
1980-07-03 02:34:39,1,9.63333,-3.85,-6.63333,0.289156,1,1,38368.7,45435.2,1696,0.68444759,5.6298618,138.53722,103.30284,6.49912,355.262,-2.38018,20.7443,25.1679,27.3876
1980-07-03 02:36:00,1,9.71429,-3.91429,-6.64286,0.477237,1,1,39613.0,47112.0,1696,0.68446213,5.6297026,138.52618,103.30353,5.7613,355.065,0.530525,20.0078,25.5727,27.8884
1980-07-03 02:37:21,1,9.04286,-4.01429,-7.38571,0.426662,1,1,37902.0,43498.4,1696,0.6844694,5.6296234,138.5148,103.30386,5.99872,361.625,3.23913,29.5124,25.0143,26.7975
1980-07-03 02:38:42,1,9.31429,-5.61429,-5.87143,0.45848,1,1,31957.0,49573.4,1696,0.68447667,5.6295443,138.50342,103.3042,6.17583,360.895,11.8684,20.584,22.9689,28.6077
1980-07-03 02:40:03,1,10.05,-5.5,-4.86667,0.898919,1,1,33382.8,41128.9,1696,0.68449128,5.6293859,138.49239,103.30489,5.70931,357.187,8.36718,18.0246,23.4758,26.0574
1980-07-03 02:41:24,1,9.95714,-5.41429,-5.05714,0.707395,1,1,35533.6,45836.7,1696,0.68449855,5.6293058,138.4771,103.30522,6.07928,354.519,3.21919,13.9657,24.2202,27.5083
1980-07-03 02:42:45,1,9.61667,-6.16667,-4.9,0.252212,1,1,42593.1,49340.1,1696,0.68450582,5.6292267,138.46573,103.30557,6.5486,360.148,12.9655,10.1148,26.5172,28.5403
1980-07-03 02:44:06,1,9.45714,-6.74286,-4.37143,0.50548,1,1,39828.3,43711.2,1696,0.68452036,5.6290684,138.45468,103.30624,6.36393,363.363,16.2627,10.9649,25.6421,26.863
1980-07-03 02:45:27,1,8.66667,-5.55,-7.06667,0.529413,1,1,44367.6,40757.5,1696,0.68452764,5.6289892,138.44331,103.30659,6.72511,363.985,9.71318,19.6894,27.0639,25.9395
1980-07-03 02:46:48,1,9.0,-5.52857,-6.91429,0.186263,1,1,39556.3,42666.2,1696,0.68453491,5.6289091,138.43193,103.30693,6.52336,363.38,10.8588,22.5697,25.5544,26.5399
1980-07-03 02:48:09,1,8.8,-5.5,-7.25714,0.369777,1,1,38340.1,37686.4,1696,0.68454951,5.6287508,138.4209,103.30762,6.39465,365.287,7.00632,24.7365,25.1585,24.9431
1980-07-03 02:49:30,1,8.41429,-5.55714,-7.47143,0.282843,1,1,36488.8,38428.1,1696,0.68455678,5.6286716,138.40561,103.30795,6.18162,366.227,6.4984,28.1943,24.5436,25.1873
1980-07-03 02:50:51,1,8.52857,-4.21429,-7.88571,0.352831,1,1,38509.9,41880.8,1696,0.68456405,5.6285915,138.39423,103.30829,6.5159,365.633,5.86913,26.6797,25.2141,26.2945
1980-07-03 02:52:12,1,8.45714,-4.62857,-7.82857,0.397441,1,1,39956.4,40416.3,1696,0.6845786,5.6284332,138.38319,103.30898,6.00057,364.944,2.45862,26.8142,25.6833,25.8307
1980-07-03 02:53:33,1,8.4,-4.5,-7.93333,0.149071,1,1,40449.5,35774.4,1696,0.68458593,5.6283541,138.37181,103.30931,6.05917,367.216,6.33363,26.5601,25.8413,24.3021
1980-07-03 02:54:54,1,6.7,-0.328571,-10.0714,0.752953,1,1,43544.7,40698.1,1696,0.6845932,5.6282749,138.36044,103.30966,5.49288,373.095,-21.3784,42.2974,26.8118,25.9206
1980-07-03 02:56:15,-1,nan,nan,nan,nan,1,4,nan,nan,1696,0.68460774,5.6281157,138.3494,103.31033,nan,nan,nan,nan,nan,nan
1980-07-03 03:00:18,1,8.02857,-1.12857,-8.72857,1.25373,1,1,38767.6,38635.9,1696,0.68463689,5.627799,138.31171,103.31171,5.77517,360.152,-28.0517,28.7922,25.2984,25.2553
1980-07-03 03:01:39,1,8.11429,-2.74286,-8.28571,0.520204,1,1,39263.1,39252.7,1696,0.68464416,5.6277189,138.30032,103.31204,6.1786,363.241,0.624987,27.5738,25.4595,25.4562
1980-07-03 03:03:00,1,7.91429,-1.4,-8.74286,0.428571,1,1,39310.8,42627.1,1696,0.68465871,5.6275606,138.28928,103.31271,5.97556,366.426,-12.1932,35.8154,25.475,26.5278
1980-07-03 03:04:21,1,7.73333,-3.28333,-8.18333,0.893495,1,1,37622.5,45430.1,1696,0.68466598,5.6274815,138.274,103.31306,6.90212,365.739,9.81236,23.0069,24.9219,27.3861
1980-07-03 03:05:42,1,7.6,-5.95,-6.95,0.518009,1,1,42177.8,38016.4,1696,0.68467325,5.6274023,138.26262,103.3134,5.97754,371.248,19.5972,21.6321,26.3876,25.0521
1980-07-03 03:07:03,1,5.34286,1.5,-10.3714,2.06506,1,1,67167.8,32676.4,1696,0.68468779,5.627243,138.25157,103.31407,5.504,386.764,-28.8836,51.0045,33.2995,23.226
1980-07-03 03:08:24,1,8.08571,0.185714,-8.54286,0.433307,1,1,44565.9,53756.0,1696,0.68469507,5.6271639,138.2402,103.31442,5.99536,364.908,-23.2748,36.5364,27.1244,29.7901
1980-07-03 03:09:45,1,8.3,-1.78571,-8.01429,0.38492,1,1,37151.9,48594.2,1696,0.68470234,5.6270847,138.22882,103.31476,6.09958,362.347,-10.7935,34.7082,24.7656,28.3237
1980-07-03 03:11:06,1,8.95714,-2.22857,-7.75714,0.318158,1,1,45023.5,41605.7,1696,0.68471688,5.6269255,138.21777,103.31543,6.45304,356.054,-8.14454,27.1779,27.2632,26.208
1980-07-03 03:12:27,1,8.2,-2.88333,-7.78333,0.607819,1,1,44627.3,40627.4,1696,0.68472415,5.6268463,138.2025,103.31578,6.01164,361.168,2.19252,27.7285,27.143,25.8981
1980-07-03 03:13:48,1,7.96667,-3.48333,-7.55,0.613279,1,1,36876.7,45130.4,1696,0.68473142,5.6267672,138.19112,103.31612,5.49368,357.768,-0.435039,26.5698,24.6737,27.2956
1980-07-03 03:15:09,1,7.61667,-3.03333,-8.73333,0.701783,1,1,43409.4,32172.6,1696,0.68474597,5.6266088,138.18008,103.3168,5.64228,365.134,4.06296,28.6279,26.7701,23.0463
1980-07-03 03:16:30,1,9.56667,-4.36667,-5.76667,0.787401,1,1,46075.0,49532.5,1696,0.68475324,5.6265287,138.1687,103.31714,6.87766,352.474,7.6185,13.7599,27.5798,28.5959
1980-07-03 03:17:51,1,9.35,-4.9,-5.35,0.334166,1,1,39947.5,39486.2,1696,0.68476051,5.6264496,138.15732,103.31747,6.02784,353.64,10.5364,11.0646,25.6805,25.5317
1980-07-03 03:19:12,1,9.81667,-4.26667,-5.31667,0.452769,1,1,42793.3,43855.8,1696,0.68477505,5.6262913,138.14629,103.31816,6.04919,353.316,1.31692,19.16,26.5794,26.9074
1980-07-03 03:20:33,1,10.1,-5.06667,-4.11667,0.408588,1,1,42336.8,42455.1,1696,0.68478239,5.6262121,138.131,103.3185,6.38901,356.077,5.39201,19.5988,26.4373,26.4742
1980-07-03 03:21:54,1,10.0714,-4.48571,-4.58571,0.802801,1,1,47757.9,44887.7,1696,0.68478966,5.626132,138.11961,103.31883,6.342,355.837,4.34519,15.3779,28.0789,27.2221
1980-07-03 03:23:15,1,10.1,-3.94286,-4.97143,0.419426,1,1,41633.9,38256.8,1696,0.6848042,5.6259737,138.10858,103.31952,5.88153,352.614,0.260173,18.2581,26.2169,25.1311
1980-07-03 03:24:36,1,9.74286,-4.48571,-5.3,0.510702,1,1,40971.4,44319.0,1696,0.68481147,5.6258945,138.0972,103.31985,6.19441,357.09,3.68666,21.4941,26.0075,27.0491
1980-07-03 03:25:57,1,10.0,-3.88333,-5.35,0.466071,1,1,41789.8,45436.4,1696,0.68481874,5.6258144,138.08582,103.32019,6.28031,353.203,0.993526,19.856,26.2659,27.388
1980-07-03 03:27:18,1,10.7,-5.51667,-2.43333,0.735036,1,1,35855.4,43566.4,1696,0.68483329,5.6256561,138.07088,103.32088,6.41905,353.495,12.844,-2.00017,24.3296,26.8184
1980-07-03 03:28:39,1,10.3833,-4.86667,-4.01667,0.474342,1,1,36847.4,35075.6,1696,0.68484056,5.625577,138.05949,103.32121,5.45386,353.465,7.26071,11.1576,24.6639,24.0636
1980-07-03 03:30:00,1,10.2167,-4.76667,-4.55,1.14139,1,1,40287.2,41017.3,1696,0.6848551,5.6254187,138.04846,103.3219,5.99713,353.267,-4.2857,21.1369,25.7894,26.022
1980-07-03 03:31:21,1,10.8,-4.53333,-3.8,0.262467,1,1,37861.6,45064.5,1696,0.68486238,5.6253386,138.03708,103.32224,6.24514,351.215,6.28476,10.156,25.001,27.2757
1980-07-03 03:32:42,1,10.7857,-4.8,-3.85714,0.144279,1,1,40107.5,45227.9,1696,0.68486965,5.6252594,138.0257,103.32257,6.46707,350.962,9.40467,7.91213,25.7318,27.3251
1980-07-03 03:34:03,1,10.5571,-4.85714,-3.45714,0.368671,1,1,38158.7,45204.5,1696,0.68488419,5.6251011,138.01466,103.32326,6.18327,349.121,6.93318,5.39988,25.0989,27.318
1980-07-03 03:35:24,1,9.05,-2.8,-7.33333,0.566912,1,1,38895.6,45726.3,1696,0.68489146,5.6250219,137.99937,103.32359,5.99921,358.942,-5.46472,32.4554,25.3401,27.4752
1980-07-03 03:36:52,1,7.41429,-2.48571,-9.07143,0.5115,1,1,39804.0,45565.1,1696,0.68489873,5.6249418,137.98799,103.32393,5.02254,377.678,-29.1005,9.83924,25.6343,27.4267
1980-07-03 03:38:13,1,6.53333,-1.96667,-9.68333,0.314907,1,1,36702.0,37000.5,1696,0.68491328,5.6247835,137.97696,103.32462,5.60975,374.814,-8.89383,49.5435,24.6152,24.7151
1980-07-03 03:39:34,1,5.98571,-1.42857,-10.2571,0.29761,1,1,40711.2,46308.8,1696,0.68492061,5.6247044,137.96558,103.32495,5.85885,380.355,-15.0216,52.8352,25.9248,27.6497
1980-07-03 03:40:55,1,6.43333,-1.81667,-10.0833,0.343996,1,1,43765.6,38837.5,1696,0.68492788,5.6246243,137.95029,103.32529,5.66989,375.055,-12.3703,49.2257,26.8797,25.3212
1980-07-03 03:42:09,1,5.35714,-0.685714,-10.7429,0.437992,1,1,43901.7,47184.7,1696,0.68494242,5.6244659,137.93925,103.32597,6.21254,381.821,-18.2398,53.4721,26.9215,27.9099
1980-07-03 03:43:30,1,4.35714,-1.07143,-10.9286,0.527218,1,1,41353.4,40374.9,1696,0.6849497,5.6243868,137.92787,103.32631,6.41229,388.973,-16.3491,54.571,26.1284,25.8175
1980-07-03 03:44:51,1,4.25,-0.633333,-11.0,0.367045,1,1,34033.7,42543.5,1696,0.68495697,5.6243076,137.91649,103.32664,5.61743,389.228,-14.8679,54.4787,23.7035,26.5017
1980-07-03 03:46:12,-1,nan,nan,nan,nan,1,4,nan,nan,1696,0.68497151,5.6241484,137.90546,103.32733,nan,nan,nan,nan,nan,nan
1980-07-03 03:47:33,1,10.9333,-5.31667,-0.85,0.960613,1,1,41283.1,41291.5,1696,0.68497878,5.6240692,137.89407,103.32767,5.86022,354.757,11.0701,-2.78488,26.1062,26.1089
1980-07-03 03:48:54,1,11.15,-5.13333,-0.866667,0.346811,1,1,40116.3,44158.2,1696,0.68498605,5.6239901,137.88269,103.328,5.93018,352.676,7.03522,0.477065,25.7347,27.0
1980-07-03 03:50:15,1,10.8167,-5.58333,-1.5,0.682723,1,1,34181.6,44137.6,1696,0.6850006,5.6238317,137.86775,103.32869,5.79319,349.081,3.3882,0.553635,23.7549,26.9937
1980-07-03 03:51:36,1,11.0167,-3.23333,-4.43333,0.340343,1,1,43575.7,50878.5,1696,0.68500787,5.6237516,137.85637,103.32903,6.84592,352.838,-5.79212,16.9222,26.8213,28.9818
1980-07-03 03:52:57,1,10.7667,-3.06667,-4.6,0.366667,1,1,41612.4,49833.5,1696,0.68501514,5.6236725,137.84499,103.32936,6.36258,352.924,-0.503562,13.5699,26.2101,28.6826
1980-07-03 03:54:18,1,10.6667,-4.83333,-2.6,0.362093,1,1,46221.5,51786.3,1696,0.68502969,5.6235142,137.83395,103.33005,6.69731,352.28,3.51584,6.99746,27.6236,29.2392
1980-07-03 03:55:39,1,10.2,-6.52857,-1.0,0.993859,1,1,37812.7,46894.2,1696,0.68503696,5.623435,137.82257,103.33038,6.10095,356.093,17.1367,-2.68605,24.9848,27.8239
1980-07-03 03:57:00,1,10.6167,-5.45,-1.95,0.310466,1,1,42893.0,42730.3,1696,0.6850515,5.6232758,137.81154,103.33107,6.09528,350.94,10.4955,2.07051,26.6104,26.5599
1980-07-03 03:58:21,1,11.1667,-4.31667,-2.48333,0.358236,1,1,37531.4,42855.3,1696,0.68505877,5.6231966,137.79625,103.33141,6.41028,350.506,2.31673,3.12896,24.8917,26.5987
1980-07-03 03:59:42,1,11.0833,-3.8,-2.91667,0.61869,1,1,37712.9,47724.6,1696,0.6850661,5.6231174,137.78487,103.33174,6.37511,348.475,-1.88798,7.62285,24.9519,28.0691
1980-07-03 04:01:03,1,10.6833,-3.6,-4.0,0.779779,1,1,41393.2,50072.9,1696,0.68508059,5.6229582,137.77383,103.33243,6.49741,347.553,-2.37179,7.86406,26.141,28.7514
1980-07-03 04:02:24,1,9.16667,-3.86667,-6.13333,0.816497,1,1,40146.6,48411.4,1696,0.68508786,5.622879,137.76245,103.33276,6.22433,359.426,-1.75974,34.61,25.7444,28.2704
1980-07-03 04:03:45,1,9.55,-3.78333,-5.7,0.322318,1,1,36262.7,42039.0,1696,0.68509513,5.6227999,137.75107,103.3331,5.7468,354.647,1.07809,22.4567,24.4674,26.3441
1980-07-03 04:05:06,1,10.6571,-2.98571,-4.54286,0.330121,1,1,41481.1,41916.3,1696,0.68510967,5.6226416,137.73611,103.33377,6.0982,349.654,-3.16018,14.8744,26.1688,26.3057
1980-07-03 04:06:27,1,10.6,-2.97143,-5.05714,0.683628,1,1,42045.9,45833.2,1696,0.68511695,5.6225615,137.72475,103.33412,6.2663,352.656,-1.5791,19.1857,26.3463,27.5073
1980-07-03 04:07:48,1,10.4333,-2.73333,-5.4,0.2848,1,1,40629.3,43769.5,1696,0.68512422,5.6224823,137.71336,103.33446,6.35741,351.364,-5.62955,16.0699,25.8987,26.8809
1980-07-03 04:09:09,1,10.3667,-2.45,-5.4,0.38478,1,1,48198.6,45646.4,1696,0.68513876,5.622324,137.70232,103.33513,6.68935,349.665,-8.37904,17.0012,28.2082,27.4512
1980-07-03 04:10:30,1,10.0333,-1.58333,-6.6,0.391933,1,1,39998.3,43411.5,1696,0.68514603,5.6222448,137.69093,103.33546,5.91055,350.17,-5.86572,24.579,25.6968,26.7707
1980-07-03 04:11:51,1,9.6,-3.15,-6.36667,0.601156,1,1,49418.3,51156.0,1696,0.68515331,5.6221647,137.67957,103.33582,6.10446,350.131,-2.3012,22.5076,28.5629,29.0607
1980-07-03 04:13:12,1,9.81667,-2.53333,-6.5,0.500278,1,1,52417.8,53795.7,1696,0.68516785,5.6220064,137.66461,103.33649,7.20066,354.014,-4.01657,27.2131,29.4169,29.8011
1980-07-03 04:14:33,1,10.95,-1.46667,-5.1,0.401732,1,1,53188.0,46731.2,1696,0.68517512,5.6219273,137.65323,103.33682,6.39822,341.759,-7.74076,12.578,29.6323,27.7755
1980-07-03 04:15:54,1,10.7667,-1.31667,-4.88333,0.488194,1,1,48276.9,48064.9,1696,0.68518239,5.6218472,137.64185,103.33716,6.75128,342.756,-11.9864,13.3148,28.2311,28.169
1980-07-03 04:17:15,1,11.52,-1.32,-3.46,0.730479,1,1,49778.3,51949.1,1696,0.68519694,5.6216888,137.63081,103.33784,7.53638,345.392,-4.29871,9.90015,28.6667,29.2851
1980-07-03 04:18:36,1,12.0143,-2.55714,-0.857143,0.411071,1,1,51338.4,50526.9,1696,0.68520421,5.6216097,137.61943,103.33818,7.131,344.024,-6.10911,-10.8406,29.1125,28.8815
1980-07-03 04:19:57,1,11.6667,-1.58333,-2.58333,0.402078,1,1,46159.2,47657.6,1696,0.68521148,5.6215305,137.60805,103.33852,6.90126,339.817,-11.9667,-2.35908,27.605,28.0494
1980-07-03 04:21:18,1,8.51667,-0.933333,-8.15,1.23266,1,1,56059.9,39798.4,1696,0.68522596,5.6213713,137.59309,103.33919,6.39971,351.241,-15.0013,32.469,30.4217,25.6325
1980-07-03 04:22:39,1,9.88333,-1.13333,-6.53333,0.567891,1,1,52862.7,39834.4,1696,0.68523324,5.6212921,137.58173,103.33954,6.71354,338.826,-12.2535,14.8999,29.5415,25.6441
1980-07-03 04:24:00,1,9.7,-2.01667,-6.5,0.433654,1,1,43014.6,37303.4,1696,0.68524778,5.6211338,137.57068,103.34021,6.37187,343.465,-5.68743,18.8029,26.6481,24.816
1980-07-03 04:25:21,1,10.2333,-1.1,-6.03333,1.22384,1,1,43743.1,34746.4,1696,0.68525505,5.6210546,137.5593,103.34055,5.8521,344.866,-19.6857,25.1107,26.8728,23.9504
1980-07-03 04:26:42,1,9.51667,-1.26667,-7.2,1.02646,1,1,65627.3,39813.9,1696,0.68526232,5.6209745,137.54791,103.34088,6.49473,345.61,-17.3211,22.883,32.9155,25.6375
1980-07-03 04:28:03,1,9.01429,-3.15714,-7.14286,0.40051,1,1,73052.9,43094.9,1696,0.68527687,5.6208162,137.53297,103.34157,7.39845,348.947,-3.76346,23.5972,34.7277,26.6729
1980-07-03 04:29:24,1,8.75,-3.61667,-7.28333,0.308671,1,1,59086.8,41846.3,1696,0.68528414,5.6207371,137.52159,103.3419,7.31576,351.675,-1.4859,26.6181,31.2322,26.2837
1980-07-03 04:30:45,1,6.46667,-4.08333,-9.01667,0.620484,1,1,54445.8,40082.6,1696,0.68529141,5.6206579,137.51021,103.34224,6.87673,366.409,9.12822,33.1148,29.9806,25.7239